Everett, WA

10:13 PM PDT on June 24, 2018 (GMT -0700)
Snohomish County

Weather History for KPAE - August, 2017

Change the Weather History Date:

Sunday, August 13, 2017

  Actual Average Record
Temperature  
Mean Temperature 60 °F -  
Max Temperature 66 °F 74 °F 91 °F (1977)
Min Temperature 57 °F 55 °F 42 °F (1955)
Degree Days  
Heating Degree Days 5    
Growing Degree Days 10 (Base 50)    
Moisture  
Dew Point 55 °F    
Average Humidity 84    
Maximum Humidity 100    
Minimum Humidity 67    
Precipitation  
Precipitation 0.00 in - - ()
Sea Level Pressure  
Sea Level Pressure 29.99 in    
Wind  
Wind Speed 10 mph (North)    
Max Wind Speed 16 mph    
Max Gust Speed 23 mph    
Visibility 9 miles    
Events Rain    
Averages and records for this station are not official NWS values.
T = Trace of Precipitation, MM = Missing Value Source: NWS Daily Summary

Daily Weather History Graph

Daily Weather History Graph

Search for Another Location

Airport or City:

Astronomy

Aug. 13, 2017 Rise Set
Actual Time 6:01 AM PDT 8:24 PM PDT
Civil Twilight 5:27 AM PDT 8:59 PM PDT
Nautical Twilight 4:44 AM PDT 9:41 PM PDT
Astronomical Twilight 3:54 AM PDT 10:30 PM PDT
Moon 11:34 PM PDT (8/13) 12:34 PM PDT (8/13)
Length of Visible Light 15h 31m
Length of Day
14h 22m
Waning Gibbous, 64% of the Moon is Illuminated
Aug 13
Waning Gibbous
Aug 14
Last Quarter
Aug 21
New
Aug 29
First Quarter
Sep 6
Full

Hourly Weather History & Observations

Time (PDT) Temp. Dew Point Humidity Pressure Visibility Wind Dir Wind Speed Gust Speed Precip Events Conditions
12:39 AM 60.1 °F 59.0 °F 96% 29.94 in 10.0 mi SE 10.4 mph - 0.00 in Rain Light Rain
12:53 AM 60.1 °F 59.0 °F 96% 29.94 in 10.0 mi SE 13.8 mph - 0.00 in Rain Light Rain
1:25 AM 60.1 °F 57.9 °F 93% 29.94 in 10.0 mi SE 13.8 mph - 0.00 in   Overcast
1:53 AM 60.1 °F 57.0 °F 90% 29.93 in 10.0 mi SE 16.1 mph - 0.00 in   Overcast
2:53 AM 60.1 °F 55.0 °F 83% 29.93 in 10.0 mi ESE 11.5 mph - 0.00 in   Overcast
3:53 AM 60.1 °F 57.0 °F 90% 29.93 in 10.0 mi SE 10.4 mph - N/A   Overcast
4:53 AM 60.1 °F 55.0 °F 83% 29.92 in 10.0 mi SE 10.4 mph 19.6 mph N/A   Overcast
5:36 AM 60.1 °F 55.9 °F 86% 29.93 in 10.0 mi SE 9.2 mph - N/A   Overcast
5:53 AM 60.1 °F 55.9 °F 86% 29.93 in 10.0 mi SSE 13.8 mph 23.0 mph N/A   Overcast
6:29 AM 60.1 °F 57.0 °F 90% 29.93 in 10.0 mi SSE 12.7 mph - N/A   Overcast
6:53 AM 60.1 °F 55.9 °F 86% 29.94 in 10.0 mi SSE 10.4 mph - N/A   Overcast
7:53 AM 60.1 °F 57.0 °F 90% 29.96 in 10.0 mi South 10.4 mph - N/A   Overcast
8:24 AM 60.1 °F 57.9 °F 93% 29.96 in 10.0 mi South 11.5 mph - N/A   Overcast
8:53 AM 59.0 °F 57.9 °F 96% 29.97 in 2.0 mi South 8.1 mph - N/A   Overcast
9:21 AM 57.9 °F 57.0 °F 97% 29.98 in 1.0 mi WSW 8.1 mph - 0.00 in Rain Light Rain
9:50 AM 57.2 °F 57.2 °F 100% 29.99 in 2.0 mi NNW 4.6 mph - 0.00 in   Overcast
9:53 AM 57.9 °F 57.0 °F 97% 29.99 in 2.0 mi NNW 3.5 mph - 0.00 in   Overcast
10:53 AM 59.0 °F 55.9 °F 90% 30.01 in 2.0 mi NW 6.9 mph - N/A   Overcast
11:00 AM 59.0 °F 55.9 °F 90% 30.01 in 10.0 mi NW 6.9 mph - N/A   Overcast
11:12 AM 60.1 °F 55.9 °F 86% 30.01 in 10.0 mi NW 8.1 mph - N/A   Mostly Cloudy
11:53 AM 62.1 °F 55.0 °F 78% 30.02 in 10.0 mi North 5.8 mph - N/A   Mostly Cloudy
12:53 PM 63.0 °F 53.1 °F 70% 30.03 in 10.0 mi North 6.9 mph - N/A   Mostly Cloudy
1:53 PM 63.0 °F 53.1 °F 70% 30.04 in 10.0 mi NNW 10.4 mph - N/A   Overcast
2:53 PM 63.0 °F 52.0 °F 67% 30.04 in 10.0 mi NNW 10.4 mph - N/A   Overcast
3:53 PM 62.1 °F 51.1 °F 67% 30.04 in 10.0 mi NNW 10.4 mph 18.4 mph N/A   Overcast
4:53 PM 62.1 °F 52.0 °F 70% 30.04 in 10.0 mi North 11.5 mph - N/A   Overcast
5:53 PM 62.1 °F 53.1 °F 72% 30.04 in 10.0 mi NNW 6.9 mph - N/A   Overcast
6:53 PM 60.1 °F 52.0 °F 75% 30.03 in 10.0 mi North 8.1 mph - 0.00 in Rain Light Rain
7:53 PM 57.9 °F 52.0 °F 81% 30.03 in 10.0 mi NNW 8.1 mph - 0.00 in   Overcast
8:53 PM 57.9 °F 48.9 °F 72% 30.04 in 10.0 mi NNW 9.2 mph 16.1 mph 0.00 in   Overcast
9:53 PM 57.0 °F 48.9 °F 74% 30.05 in 10.0 mi NNW 8.1 mph - N/A   Mostly Cloudy
10:53 PM 57.0 °F 48.9 °F 74% 30.05 in 10.0 mi NNW 6.9 mph - N/A   Overcast
11:53 PM 57.0 °F 48.9 °F 74% 30.05 in 10.0 mi North 5.8 mph - N/A   Overcast